,,Stat6,,Stat2,,Stat8,,Stat9,,Stat10,,Wind1,,Wind1,
time,status,PA1M_AVG,status,PR1M_SUM,status,RH1M_AVG,status,SR1M_AVG,status,TA1M_AVG,status,W1dAve1m,status,W1sAve1m,
2009-05-02, 00:00:00,VALID,919.059,VALID,0,VALID,100,VALID,0.0339617,VALID,20.2829,VALID,15,VALID,0.323765,
2009-05-02, 00:01:00,VALID,919.06,VALID,0,VALID,100,VALID,0.0169808,VALID,20.2999,VALID,28,VALID,0.201705,
2009-05-02, 00:02:00,VALID,919.062,VALID,0,VALID,100,VALID,0,VALID,20.3158,VALID,41,VALID,0.0984738,
2009-05-02, 00:03:00,VALID,919.054,VALID,0,VALID,100,VALID,0.0339617,VALID,20.3288,VALID,43,VALID,0,
2009-05-02, 00:04:00,VALID,919.033,VALID,0,VALID,100,VALID,0,VALID,20.3221,VALID,43,VALID,0,
2009-05-02, 00:05:00,VALID,919.024,VALID,0,VALID,100,VALID,0,VALID,20.3483,VALID,43,VALID,0,
2009-05-02, 00:06:00,VALID,919.026,VALID,0,VALID,100,VALID,0,VALID,20.3283,VALID,43,VALID,0,
2009-05-02, 00:07:00,VALID,919.019,VALID,0,VALID,99.9898,VALID,0,VALID,20.3221,VALID,43,VALID,0,
2009-05-02, 00:08:00,VALID,919.018,VALID,0,VALID,99.9771,VALID,0.0169808,VALID,20.3123,VALID,43,VALID,0,
2009-05-02, 00:09:00,VALID,919.032,VALID,0,VALID,99.9285,VALID,-0.0509425,VALID,20.3139,VALID,43,VALID,0,
2009-05-02, 00:10:00,VALID,919.041,VALID,0,VALID,99.4802,VALID,-0.0339617,VALID,20.2619,VALID,43,VALID,0,
2009-05-02, 00:11:00,VALID,919.057,VALID,0,VALID,99.3823,VALID,-0.0339617,VALID,20.1741,VALID,43,VALID,0,
2009-05-02, 00:12:00,VALID,919.086,VALID,0,VALID,99.4827,VALID,-0.0849042,VALID,20.0997,VALID,43,VALID,0,
2009-05-02, 00:13:00,VALID,919.109,VALID,0,VALID,99.8927,VALID,-0.0509425,VALID,20.0443,VALID,43,VALID,0,
2009-05-02, 00:14:00,VALID,919.11,VALID,0,VALID,100,VALID,-0.0679233,VALID,20.0632,VALID,43,VALID,0,
2009-05-02, 00:15:00,VALID,919.128,VALID,0,VALID,100,VALID,-0.101885,VALID,20.0994,VALID,42,VALID,0,
2009-05-02, 00:16:00,VALID,919.111,VALID,0,VALID,100,VALID,-0.0509425,VALID,20.1151,VALID,42,VALID,0.0832122,
2009-05-02, 00:17:00,VALID,919.103,VALID,0,VALID,100,VALID,-0.0339617,VALID,20.1486,VALID,38,VALID,0.862196,
2009-05-02, 00:18:00,VALID,919.098,VALID,0,VALID,100,VALID,-0.0679233,VALID,20.1738,VALID,34,VALID,0.840216,
2009-05-02, 00:19:00,VALID,919.074,VALID,0,VALID,100,VALID,-0.0679233,VALID,20.1938,VALID,33,VALID,0.677202,
2009-05-02, 00:20:00,VALID,919.057,VALID,0,VALID,100,VALID,0,VALID,20.2058,VALID,39,VALID,0.810082,
2009-05-02, 00:21:00,VALID,919.055,VALID,0,VALID,99.9878,VALID,0,VALID,20.213,VALID,29,VALID,0.547676,
2009-05-02, 00:22:00,VALID,919.062,VALID,0,VALID,100,VALID,-0.0169808,VALID,20.2252,VALID,27,VALID,0.632254,
2009-05-02, 00:23:00,VALID,919.052,VALID,0,VALID,99.998,VALID,-0.0169808,VALID,20.2485,VALID,26,VALID,0.388579,
2009-05-02, 00:24:00,VALID,919.091,VALID,0,VALID,99.9354,VALID,-0.0169808,VALID,20.2877,VALID,24,VALID,0.530297,
2009-05-02, 00:25:00,VALID,919.097,VALID,0,VALID,99.8693,VALID,-0.0169808,VALID,20.3034,VALID,11,VALID,0.720526,
2009-05-02, 00:26:00,VALID,919.101,VALID,0,VALID,99.7777,VALID,-0.0169808,VALID,20.3321,VALID,5,VALID,0.70957,
2009-05-02, 00:27:00,VALID,919.096,VALID,0,VALID,99.7408,VALID,-0.0169808,VALID,20.3685,VALID,4,VALID,0.240916,
2009-05-02, 00:28:00,VALID,919.09,VALID,0,VALID,99.587,VALID,0.0339617,VALID,20.3907,VALID,4,VALID,0,
2009-05-02, 00:29:00,VALID,919.072,VALID,0,VALID,99.1381,VALID,-0.0339617,VALID,20.371,VALID,4,VALID,0,
2009-05-02, 00:30:00,VALID,919.059,VALID,0,VALID,98.9359,VALID,0,VALID,20.2964,VALID,4,VALID,0,
2009-05-02, 00:31:00,VALID,919.035,VALID,0,VALID,99.1521,VALID,0,VALID,20.2479,VALID,28,VALID,0.568892,
2009-05-02, 00:32:00,VALID,919.022,VALID,0,VALID,99.3772,VALID,0,VALID,20.2222,VALID,35,VALID,0.854288,
2009-05-02, 00:33:00,VALID,919.004,VALID,0,VALID,99.6061,VALID,-0.0169808,VALID,20.2095,VALID,38,VALID,0.742551,
2009-05-02, 00:34:00,VALID,918.993,VALID,0,VALID,99.7243,VALID,-0.0509425,VALID,20.1898,VALID,42,VALID,0.794876,
2009-05-02, 00:35:00,VALID,918.972,VALID,0,VALID,99.737,VALID,-0.0339617,VALID,20.1833,VALID,27,VALID,0.462109,
2009-05-02, 00:36:00,VALID,918.932,VALID,0,VALID,99.7192,VALID,0,VALID,20.1868,VALID,27,VALID,0.494234,
2009-05-02, 00:37:00,VALID,918.9,VALID,0,VALID,99.6696,VALID,-0.0509425,VALID,20.1708,VALID,27,VALID,0.376272,
2009-05-02, 00:38:00,VALID,918.863,VALID,0,VALID,99.5437,VALID,0,VALID,20.1741,VALID,27,VALID,0.544695,
2009-05-02, 00:39:00,VALID,918.823,VALID,0,VALID,99.4942,VALID,-0.0169808,VALID,20.1638,VALID,27,VALID,0.4875,
2009-05-02, 00:40:00,VALID,918.802,VALID,0,VALID,99.442,VALID,0,VALID,20.1603,VALID,27,VALID,0.701215,
2009-05-02, 00:41:00,VALID,918.79,VALID,0,VALID,99.3543,VALID,-0.0339617,VALID,20.1743,VALID,27,VALID,0.598323,
2009-05-02, 00:42:00,VALID,918.764,VALID,0,VALID,99.3873,VALID,-0.0339617,VALID,20.1765,VALID,27,VALID,0.0699314,
2009-05-02, 00:43:00,VALID,918.762,VALID,0,VALID,99.3632,VALID,-0.0169808,VALID,20.2122,VALID,27,VALID,0,
2009-05-02, 00:44:00,VALID,918.722,VALID,0,VALID,99.2996,VALID,-0.0679233,VALID,20.2455,VALID,27,VALID,0,
2009-05-02, 00:45:00,VALID,918.687,VALID,0,VALID,99.1496,VALID,-0.0169808,VALID,20.2642,VALID,27,VALID,0,
2009-05-02, 00:46:00,VALID,918.659,VALID,0,VALID,98.9652,VALID,-0.0169808,VALID,20.2712,VALID,27,VALID,0,
2009-05-02, 00:47:00,VALID,918.628,VALID,0,VALID,98.7719,VALID,0,VALID,20.2677,VALID,27,VALID,0,
2009-05-02, 00:48:00,VALID,918.61,VALID,0,VALID,98.7312,VALID,0,VALID,20.2444,VALID,27,VALID,0,
2009-05-02, 00:49:00,VALID,918.618,VALID,0,VALID,98.6765,VALID,-0.0169808,VALID,20.2509,VALID,66,VALID,0.701705,
2009-05-02, 00:50:00,VALID,918.605,VALID,0,VALID,98.6206,VALID,0,VALID,20.2514,VALID,83,VALID,0.912997,
2009-05-02, 00:51:00,VALID,918.588,VALID,0,VALID,98.6409,VALID,-0.0169808,VALID,20.2612,VALID,89,VALID,0.863372,
2009-05-02, 00:52:00,VALID,918.571,VALID,0,VALID,98.5799,VALID,0,VALID,20.2774,VALID,93,VALID,0.832386,
2009-05-02, 00:53:00,VALID,918.541,VALID,0,VALID,98.5074,VALID,-0.0339617,VALID,20.2804,VALID,99,VALID,0.749256,
2009-05-02, 00:54:00,VALID,918.542,VALID,0,VALID,98.454,VALID,-0.0169808,VALID,20.2899,VALID,102,VALID,0.583333,
2009-05-02, 00:55:00,VALID,918.52,VALID,0,VALID,98.4959,VALID,-0.0169808,VALID,20.3036,VALID,104,VALID,0.154018,
2009-05-02, 00:56:00,VALID,918.521,VALID,0,VALID,98.5443,VALID,0,VALID,20.3069,VALID,104,VALID,0,
2009-05-02, 00:57:00,VALID,918.5,VALID,0,VALID,98.6295,VALID,-0.0169808,VALID,20.3099,VALID,104,VALID,0,
2009-05-02, 00:58:00,VALID,918.495,VALID,0,VALID,98.674,VALID,0,VALID,20.2899,VALID,104,VALID,0,
2009-05-02, 00:59:00,VALID,918.501,VALID,0,VALID,98.6371,VALID,-0.0169808,VALID,20.2644,VALID,104,VALID,0,
2009-05-02, 01:00:00,VALID,918.505,VALID,0,VALID,98.6244,VALID,-0.0169808,VALID,20.2285,VALID,104,VALID,0,
2009-05-02, 01:01:00,VALID,918.502,VALID,0,VALID,98.4794,VALID,-0.0509425,VALID,20.1671,VALID,104,VALID,0,
2009-05-02, 01:02:00,VALID,918.504,VALID,0,VALID,98.6028,VALID,-0.0169808,VALID,20.1186,VALID,87,VALID,0,
2009-05-02, 01:03:00,VALID,918.499,VALID,0,VALID,98.7477,VALID,-0.0679233,VALID,20.0692,VALID,56,VALID,0.0924782,
2009-05-02, 01:04:00,VALID,918.502,VALID,0,VALID,98.9575,VALID,-0.0169808,VALID,20.0403,VALID,39,VALID,0.847356,
2009-05-02, 01:05:00,VALID,918.492,VALID,0,VALID,99.2564,VALID,-0.0679233,VALID,20.0475,VALID,30,VALID,0.632813,
2009-05-02, 01:06:00,VALID,918.481,VALID,0,VALID,99.3606,VALID,-0.0339617,VALID,20.0597,VALID,28,VALID,0.496652,
2009-05-02, 01:07:00,VALID,918.482,VALID,0,VALID,99.1877,VALID,-0.0339617,VALID,20.0502,VALID,28,VALID,0.606585,
2009-05-02, 01:08:00,VALID,918.477,VALID,0,VALID,99.2386,VALID,-0.0169808,VALID,20.0208,VALID,28,VALID,0.699219,
2009-05-02, 01:09:00,VALID,918.483,VALID,0,VALID,99.3581,VALID,0,VALID,19.9851,VALID,28,VALID,0.75434,
2009-05-02, 01:10:00,VALID,918.488,VALID,0,VALID,99.5069,VALID,0,VALID,19.9491,VALID,28,VALID,0.739169,
2009-05-02, 01:11:00,VALID,918.503,VALID,0,VALID,99.6289,VALID,0,VALID,19.9362,VALID,28,VALID,0.683966,
2009-05-02, 01:12:00,VALID,918.52,VALID,0,VALID,99.7256,VALID,0,VALID,19.9299,VALID,28,VALID,0.814732,
2009-05-02, 01:13:00,VALID,918.536,VALID,0,VALID,99.8299,VALID,-0.0339617,VALID,19.9337,VALID,24,VALID,1.0476,
2009-05-02, 01:14:00,VALID,918.531,VALID,0,VALID,99.9163,VALID,0,VALID,19.9364,VALID,14,VALID,1.12754,
2009-05-02, 01:15:00,VALID,918.517,VALID,0,VALID,99.8833,VALID,0,VALID,19.9432,VALID,357,VALID,1.25688,
2009-05-02, 01:16:00,VALID,918.498,VALID,0,VALID,99.9189,VALID,-0.0339617,VALID,19.9397,VALID,354,VALID,0.901563,
2009-05-02, 01:17:00,VALID,918.501,VALID,0,VALID,99.9634,VALID,-0.0679233,VALID,19.9664,VALID,357,VALID,0.845052,
2009-05-02, 01:18:00,VALID,918.492,VALID,0,VALID,99.9903,VALID,-0.0339617,VALID,19.9858,VALID,360,VALID,0.994792,
2009-05-02, 01:19:00,VALID,918.487,VALID,0,VALID,99.999,VALID,-0.0169808,VALID,19.9986,VALID,359,VALID,0.816964,
2009-05-02, 01:20:00,VALID,918.489,VALID,0,VALID,100,VALID,-0.0169808,VALID,19.9981,VALID,5,VALID,0.584302,
2009-05-02, 01:21:00,VALID,918.465,VALID,0,VALID,99.9664,VALID,0,VALID,20.0245,VALID,10,VALID,0.442264,
2009-05-02, 01:22:00,VALID,918.451,VALID,0,VALID,99.84,VALID,-0.0679233,VALID,19.9956,VALID,15,VALID,0.232572,
2009-05-02, 01:23:00,VALID,918.44,VALID,0,VALID,99.7078,VALID,-0.0849042,VALID,19.9526,VALID,15,VALID,0,
2009-05-02, 01:24:00,VALID,918.435,VALID,0,VALID,99.7981,VALID,-0.0169808,VALID,19.9204,VALID,15,VALID,0,
2009-05-02, 01:25:00,VALID,918.432,VALID,0,VALID,99.9631,VALID,-0.0169808,VALID,19.9105,VALID,15,VALID,0.158854,
2009-05-02, 01:26:00,VALID,918.427,VALID,0,VALID,100,VALID,-0.0169808,VALID,19.9167,VALID,15,VALID,0.570685,
2009-05-02, 01:27:00,VALID,918.437,VALID,0,VALID,100,VALID,0,VALID,19.9464,VALID,14,VALID,0.59375,
2009-05-02, 01:28:00,VALID,918.416,VALID,0,VALID,100,VALID,-0.0169808,VALID,19.9591,VALID,7,VALID,0.707485,
2009-05-02, 01:29:00,VALID,918.408,VALID,0,VALID,100,VALID,0,VALID,19.9624,VALID,4,VALID,0.520703,
2009-05-02, 01:30:00,VALID,918.399,VALID,0,VALID,99.8662,VALID,-0.0509425,VALID,19.9656,VALID,11,VALID,0.730097,
2009-05-02, 01:31:00,VALID,918.388,VALID,0,VALID,99.5323,VALID,0,VALID,19.9462,VALID,28,VALID,0.7375,
2009-05-02, 01:32:00,VALID,918.364,VALID,0,VALID,99.2284,VALID,0,VALID,19.9427,VALID,29,VALID,0.8212,
2009-05-02, 01:33:00,VALID,918.366,VALID,0,VALID,98.9766,VALID,-0.0339617,VALID,19.9199,VALID,18,VALID,0.934411,
2009-05-02, 01:34:00,VALID,918.369,VALID,0,VALID,98.8622,VALID,-0.0169808,VALID,19.9234,VALID,11,VALID,1.10709,
2009-05-02, 01:35:00,VALID,918.345,VALID,0,VALID,98.7465,VALID,-0.0339617,VALID,19.9526,VALID,19,VALID,0.880996,
2009-05-02, 01:36:00,VALID,918.339,VALID,0,VALID,98.6498,VALID,-0.0169808,VALID,19.9786,VALID,13,VALID,0.809837,
2009-05-02, 01:37:00,VALID,918.32,VALID,0,VALID,98.4985,VALID,0,VALID,20.0046,VALID,7,VALID,0.798209,
2009-05-02, 01:38:00,VALID,918.303,VALID,0,VALID,98.3027,VALID,-0.0169808,VALID,20.0273,VALID,3,VALID,0.953683,
2009-05-02, 01:39:00,VALID,918.291,VALID,0,VALID,98.1348,VALID,-0.0509425,VALID,20.0373,VALID,4,VALID,0.946911,
2009-05-02, 01:40:00,VALID,918.264,VALID,0,VALID,97.9771,VALID,-0.0169808,VALID,20.0432,VALID,5,VALID,0.707031,
2009-05-02, 01:41:00,VALID,918.254,VALID,0,VALID,97.8169,VALID,-0.0339617,VALID,20.06,VALID,6,VALID,0.723474,
2009-05-02, 01:42:00,VALID,918.239,VALID,0,VALID,97.7177,VALID,0,VALID,20.05,VALID,10,VALID,0.702762,
2009-05-02, 01:43:00,VALID,918.23,VALID,0,VALID,97.6249,VALID,0,VALID,20.05,VALID,10,VALID,0.816315,
2009-05-02, 01:44:00,VALID,918.219,VALID,0,VALID,97.5283,VALID,-0.0339617,VALID,20.0408,VALID,10,VALID,0.642485,
2009-05-02, 01:45:00,VALID,918.214,VALID,0,VALID,97.5499,VALID,-0.0339617,VALID,20.0308,VALID,10,VALID,0.663872,
2009-05-02, 01:46:00,VALID,918.192,VALID,0,VALID,97.4532,VALID,0,VALID,20.024,VALID,10,VALID,0.904204,
2009-05-02, 01:47:00,VALID,918.161,VALID,0,VALID,97.4977,VALID,-0.0339617,VALID,20.0078,VALID,10,VALID,0.677507,
2009-05-02, 01:48:00,VALID,918.163,VALID,0,VALID,97.5461,VALID,-0.0169808,VALID,19.9886,VALID,10,VALID,0.655297,
2009-05-02, 01:49:00,VALID,918.171,VALID,0,VALID,97.6541,VALID,-0.0339617,VALID,19.9624,VALID,10,VALID,0.226385,
2009-05-02, 01:50:00,VALID,918.17,VALID,0,VALID,97.6872,VALID,-0.0339617,VALID,19.9397,VALID,10,VALID,0,
2009-05-02, 01:51:00,VALID,918.162,VALID,0,VALID,97.9136,VALID,-0.0339617,VALID,19.9269,VALID,10,VALID,0,
2009-05-02, 01:52:00,VALID,918.148,VALID,0,VALID,98.5214,VALID,-0.0509425,VALID,19.9726,VALID,8,VALID,0,
2009-05-02, 01:53:00,VALID,918.137,VALID,0,VALID,99.2704,VALID,0,VALID,20.0278,VALID,7,VALID,0,
2009-05-02, 01:54:00,VALID,918.112,VALID,0,VALID,99.4293,VALID,-0.0339617,VALID,20.034,VALID,7,VALID,0,
2009-05-02, 01:55:00,VALID,918.08,VALID,0,VALID,98.9575,VALID,-0.0509425,VALID,19.9729,VALID,7,VALID,0,
2009-05-02, 01:56:00,VALID,918.057,VALID,0,VALID,99.2424,VALID,-0.0169808,VALID,19.9302,VALID,7,VALID,0,
2009-05-02, 01:57:00,VALID,918.007,VALID,0,VALID,99.4229,VALID,-0.0509425,VALID,19.9237,VALID,7,VALID,0,
2009-05-02, 01:58:00,VALID,917.979,VALID,0,VALID,99.3174,VALID,-0.0679233,VALID,19.898,VALID,7,VALID,0,
2009-05-02, 01:59:00,VALID,917.956,VALID,0,VALID,99.0618,VALID,-0.0509425,VALID,19.8398,VALID,7,VALID,0,
2009-05-02, 02:00:00,VALID,917.943,VALID,0,VALID,98.9258,VALID,-0.0339617,VALID,19.7487,VALID,7,VALID,0,
2009-05-02, 02:01:00,VALID,917.925,VALID,0,VALID,99.208,VALID,-0.0679233,VALID,19.6866,VALID,7,VALID,0,
2009-05-02, 02:02:00,VALID,917.909,VALID,0,VALID,99.4662,VALID,-0.0679233,VALID,19.6574,VALID,7,VALID,0.0741186,
2009-05-02, 02:03:00,VALID,917.932,VALID,0,VALID,99.6671,VALID,-0.0509425,VALID,19.6479,VALID,7,VALID,0,
2009-05-02, 02:04:00,VALID,917.947,VALID,0,VALID,99.6963,VALID,-0.0509425,VALID,19.6511,VALID,7,VALID,0,
2009-05-02, 02:05:00,VALID,917.94,VALID,0,VALID,99.6633,VALID,-0.0509425,VALID,19.6541,VALID,7,VALID,0,
2009-05-02, 02:06:00,VALID,917.932,VALID,0,VALID,99.5234,VALID,-0.0679233,VALID,19.6446,VALID,7,VALID,0,
2009-05-02, 02:07:00,VALID,917.932,VALID,0,VALID,99.2475,VALID,-0.0339617,VALID,19.5728,VALID,7,VALID,0,
2009-05-02, 02:08:00,VALID,917.921,VALID,0,VALID,99.3797,VALID,-0.0169808,VALID,19.5119,VALID,7,VALID,0,
2009-05-02, 02:09:00,VALID,917.902,VALID,0,VALID,99.5577,VALID,0.0169808,VALID,19.4912,VALID,7,VALID,0.264535,
2009-05-02, 02:10:00,VALID,917.885,VALID,0,VALID,99.6442,VALID,0.0339617,VALID,19.4877,VALID,7,VALID,0.837109,
2009-05-02, 02:11:00,VALID,917.876,VALID,0,VALID,99.6048,VALID,0.0849042,VALID,19.5104,VALID,7,VALID,0.647104,
2009-05-02, 02:12:00,VALID,917.866,VALID,0,VALID,99.4942,VALID,0.0509425,VALID,19.5493,VALID,9,VALID,0.485305,
2009-05-02, 02:13:00,VALID,917.836,VALID,0,VALID,99.2932,VALID,0.0509425,VALID,19.5853,VALID,18,VALID,0.605469,
2009-05-02, 02:14:00,VALID,917.827,VALID,0,VALID,99.0771,VALID,0.0849042,VALID,19.578,VALID,18,VALID,0.62609,
2009-05-02, 02:15:00,VALID,917.836,VALID,0,VALID,98.9525,VALID,0.0509425,VALID,19.572,VALID,20,VALID,0.627486,
2009-05-02, 02:16:00,VALID,917.827,VALID,0,VALID,98.9003,VALID,0.0679233,VALID,19.5618,VALID,25,VALID,0.395531,
2009-05-02, 02:17:00,VALID,917.802,VALID,0,VALID,98.8673,VALID,0.0339617,VALID,19.5488,VALID,25,VALID,0.348544,
2009-05-02, 02:18:00,VALID,917.776,VALID,0,VALID,98.8736,VALID,0.0509425,VALID,19.5396,VALID,25,VALID,0.346628,
2009-05-02, 02:19:00,VALID,917.755,VALID,0,VALID,98.9105,VALID,0.0339617,VALID,19.5361,VALID,28,VALID,0.311719,
2009-05-02, 02:20:00,VALID,917.719,VALID,0,VALID,98.9079,VALID,0.0679233,VALID,19.5294,VALID,29,VALID,0,
2009-05-02, 02:21:00,VALID,917.697,VALID,0,VALID,98.9512,VALID,0.0339617,VALID,19.5361,VALID,28,VALID,0.288662,
2009-05-02, 02:22:00,VALID,917.672,VALID,0,VALID,98.8253,VALID,0,VALID,19.5461,VALID,24,VALID,0.666969,
2009-05-02, 02:23:00,VALID,917.649,VALID,0,VALID,98.7299,VALID,0.0169808,VALID,19.5363,VALID,13,VALID,0.766578,
2009-05-02, 02:24:00,VALID,917.642,VALID,0,VALID,98.7287,VALID,-0.0509425,VALID,19.5543,VALID,20,VALID,0.61701,
2009-05-02, 02:25:00,VALID,917.625,VALID,0,VALID,98.6587,VALID,-0.0339617,VALID,19.5443,VALID,29,VALID,0.497713,
2009-05-02, 02:26:00,VALID,917.59,VALID,0,VALID,98.5328,VALID,-0.101885,VALID,19.551,VALID,52,VALID,0.730114,
2009-05-02, 02:27:00,VALID,917.591,VALID,0,VALID,98.4018,VALID,-0.0509425,VALID,19.5605,VALID,48,VALID,0.596168,
2009-05-02, 02:28:00,VALID,917.6,VALID,0,VALID,98.1602,VALID,-0.0679233,VALID,19.583,VALID,44,VALID,0.350229,
2009-05-02, 02:29:00,VALID,917.605,VALID,0,VALID,98.0165,VALID,-0.0679233,VALID,19.6157,VALID,44,VALID,0,
2009-05-02, 02:30:00,VALID,917.605,VALID,0,VALID,97.8334,VALID,-0.0679233,VALID,19.6222,VALID,44,VALID,0,
2009-05-02, 02:31:00,VALID,917.598,VALID,0,VALID,97.939,VALID,0,VALID,19.6377,VALID,44,VALID,0,
2009-05-02, 02:32:00,VALID,917.609,VALID,0,VALID,97.9186,VALID,-0.0339617,VALID,19.6641,VALID,42,VALID,0,
2009-05-02, 02:33:00,VALID,917.6,VALID,0,VALID,97.8258,VALID,-0.0849042,VALID,19.6409,VALID,40,VALID,0,
2009-05-02, 02:34:00,VALID,917.596,VALID,0,VALID,97.6707,VALID,-0.0509425,VALID,19.595,VALID,40,VALID,0,
2009-05-02, 02:35:00,VALID,917.586,VALID,0,VALID,97.677,VALID,-0.0169808,VALID,19.5211,VALID,31,VALID,0,
2009-05-02, 02:36:00,VALID,917.567,VALID,0,VALID,97.9212,VALID,-0.0169808,VALID,19.44,VALID,30,VALID,0,
2009-05-02, 02:37:00,VALID,917.566,VALID,0,VALID,98.2582,VALID,-0.0339617,VALID,19.3943,VALID,29,VALID,0.0978423,
2009-05-02, 02:38:00,VALID,917.561,VALID,0,VALID,98.5494,VALID,-0.0509425,VALID,19.3911,VALID,4,VALID,0.836338,
2009-05-02, 02:39:00,VALID,917.578,VALID,0,VALID,98.852,VALID,-0.0339617,VALID,19.4435,VALID,352,VALID,0.215701,
2009-05-02, 02:40:00,VALID,917.579,VALID,0,VALID,99.0593,VALID,-0.0169808,VALID,19.4822,VALID,352,VALID,0,
2009-05-02, 02:41:00,VALID,917.574,VALID,0,VALID,99.2971,VALID,-0.0509425,VALID,19.5111,VALID,352,VALID,0,
2009-05-02, 02:42:00,VALID,917.579,VALID,0,VALID,99.4471,VALID,-0.0679233,VALID,19.5635,VALID,352,VALID,0,
2009-05-02, 02:43:00,VALID,917.571,VALID,0,VALID,99.3772,VALID,-0.0169808,VALID,19.5728,VALID,352,VALID,0,
2009-05-02, 02:44:00,VALID,917.565,VALID,0,VALID,99.6493,VALID,-0.0169808,VALID,19.5955,VALID,352,VALID,0,
2009-05-02, 02:45:00,VALID,917.559,VALID,0,VALID,99.7917,VALID,-0.0339617,VALID,19.6152,VALID,352,VALID,0,
2009-05-02, 02:46:00,VALID,917.563,VALID,0,VALID,99.7561,VALID,-0.0169808,VALID,19.5955,VALID,352,VALID,0,
2009-05-02, 02:47:00,VALID,917.558,VALID,0,VALID,99.409,VALID,-0.0509425,VALID,19.5568,VALID,352,VALID,0,
2009-05-02, 02:48:00,VALID,917.549,VALID,0,VALID,99.0567,VALID,-0.0169808,VALID,19.4787,VALID,352,VALID,0,
2009-05-02, 02:49:00,VALID,917.534,VALID,0,VALID,98.8406,VALID,-0.0849042,VALID,19.3716,VALID,352,VALID,0,
2009-05-02, 02:50:00,VALID,917.511,VALID,0,VALID,98.9741,VALID,-0.0339617,VALID,19.271,VALID,352,VALID,0,
2009-05-02, 02:51:00,VALID,917.491,VALID,0,VALID,99.3403,VALID,-0.0849042,VALID,19.2294,VALID,352,VALID,0,
2009-05-02, 02:52:00,VALID,917.457,VALID,0,VALID,99.5565,VALID,-0.0849042,VALID,19.1805,VALID,352,VALID,0,
2009-05-02, 02:53:00,VALID,917.436,VALID,0,VALID,99.6773,VALID,-0.0339617,VALID,19.1413,VALID,352,VALID,0,
2009-05-02, 02:54:00,VALID,917.437,VALID,0,VALID,99.821,VALID,-0.0169808,VALID,19.1186,VALID,352,VALID,0,
2009-05-02, 02:55:00,VALID,917.425,VALID,0,VALID,99.9425,VALID,-0.0169808,VALID,19.1218,VALID,352,VALID,0,
2009-05-02, 02:56:00,VALID,917.428,VALID,0,VALID,99.9641,VALID,0,VALID,19.1545,VALID,352,VALID,0,
2009-05-02, 02:57:00,VALID,917.426,VALID,0,VALID,99.9189,VALID,-0.0339617,VALID,19.154,VALID,352,VALID,0,
2009-05-02, 02:58:00,VALID,917.429,VALID,0,VALID,99.868,VALID,-0.0339617,VALID,19.1642,VALID,352,VALID,0,
2009-05-02, 02:59:00,VALID,917.422,VALID,0,VALID,99.7574,VALID,0,VALID,19.1348,VALID,352,VALID,0,
2009-05-02, 03:00:00,VALID,917.429,VALID,0,VALID,99.6607,VALID,0.0169808,VALID,19.0891,VALID,352,VALID,0,
2009-05-02, 03:01:00,VALID,917.429,VALID,0,VALID,99.6226,VALID,0,VALID,19.0472,VALID,352,VALID,0,
2009-05-02, 03:02:00,VALID,917.429,VALID,0,VALID,99.6518,VALID,0,VALID,19.0078,VALID,352,VALID,0,
2009-05-02, 03:03:00,VALID,917.444,VALID,0,VALID,99.7663,VALID,-0.0169808,VALID,19.0018,VALID,352,VALID,0,
2009-05-02, 03:04:00,VALID,917.442,VALID,0,VALID,99.8756,VALID,-0.0169808,VALID,19.0145,VALID,352,VALID,0,
2009-05-02, 03:05:00,VALID,917.444,VALID,0,VALID,99.8616,VALID,0,VALID,19.0375,VALID,352,VALID,0,
2009-05-02, 03:06:00,VALID,917.448,VALID,0,VALID,99.9199,VALID,0,VALID,19.0729,VALID,352,VALID,0,
2009-05-02, 03:07:00,VALID,917.455,VALID,0,VALID,99.9702,VALID,0,VALID,19.1153,VALID,352,VALID,0,
2009-05-02, 03:08:00,VALID,917.439,VALID,0,VALID,99.8438,VALID,-0.0169808,VALID,19.1413,VALID,352,VALID,0,
2009-05-02, 03:09:00,VALID,917.441,VALID,0,VALID,100,VALID,0,VALID,19.177,VALID,352,VALID,0,
2009-05-02, 03:10:00,VALID,917.446,VALID,0,VALID,99.8858,VALID,0,VALID,19.1835,VALID,352,VALID,0,
2009-05-02, 03:11:00,VALID,917.446,VALID,0,VALID,99.8489,VALID,0,VALID,19.183,VALID,352,VALID,0,
2009-05-02, 03:12:00,VALID,917.451,VALID,0,VALID,99.8438,VALID,-0.0169808,VALID,19.1895,VALID,352,VALID,0,
2009-05-02, 03:13:00,VALID,917.459,VALID,0,VALID,99.9367,VALID,0,VALID,19.2092,VALID,352,VALID,0,
2009-05-02, 03:14:00,VALID,917.464,VALID,0,VALID,99.9507,VALID,0,VALID,19.2354,VALID,352,VALID,0,
2009-05-02, 03:15:00,VALID,917.462,VALID,0,VALID,99.6086,VALID,-0.0339617,VALID,19.2256,VALID,352,VALID,0,
2009-05-02, 03:16:00,VALID,917.465,VALID,0,VALID,99.4255,VALID,0,VALID,19.1765,VALID,352,VALID,0,
2009-05-02, 03:17:00,VALID,917.47,VALID,0,VALID,99.8487,VALID,-0.0509425,VALID,19.1633,VALID,352,VALID,0,
2009-05-02, 03:18:00,VALID,917.469,VALID,0,VALID,99.9926,VALID,-0.0339617,VALID,19.164,VALID,352,VALID,0,
2009-05-02, 03:19:00,VALID,917.485,VALID,0,VALID,100,VALID,0,VALID,19.157,VALID,352,VALID,0,
2009-05-02, 03:20:00,VALID,917.495,VALID,0,VALID,100,VALID,0.0169808,VALID,19.1635,VALID,352,VALID,0,
2009-05-02, 03:21:00,VALID,917.508,VALID,0,VALID,100,VALID,0,VALID,19.1241,VALID,352,VALID,0,
2009-05-02, 03:22:00,VALID,917.522,VALID,0,VALID,99.9964,VALID,0.0169808,VALID,19.1084,VALID,352,VALID,0,
2009-05-02, 03:23:00,VALID,917.528,VALID,0,VALID,99.9929,VALID,0.0339617,VALID,19.0789,VALID,352,VALID,0,
2009-05-02, 03:24:00,VALID,917.529,VALID,0,VALID,100,VALID,-0.0849042,VALID,19.0744,VALID,3,VALID,0.401278,
2009-05-02, 03:25:00,VALID,917.5,VALID,0,VALID,100,VALID,-0.118866,VALID,19.0709,VALID,17,VALID,0.964208,
2009-05-02, 03:26:00,VALID,917.497,VALID,0,VALID,100,VALID,-0.101885,VALID,19.1195,VALID,18,VALID,1.01111,
2009-05-02, 03:27:00,VALID,917.492,VALID,0,VALID,100,VALID,-0.101885,VALID,19.1517,VALID,17,VALID,0.463542,
2009-05-02, 03:28:00,VALID,917.472,VALID,0,VALID,100,VALID,-0.118866,VALID,19.1782,VALID,16,VALID,0.377204,
2009-05-02, 03:29:00,VALID,917.473,VALID,0,VALID,100,VALID,-0.101885,VALID,19.1715,VALID,16,VALID,0.357013,
2009-05-02, 03:30:00,VALID,917.48,VALID,0,VALID,100,VALID,-0.118866,VALID,19.1423,VALID,16,VALID,0.134811,
2009-05-02, 03:31:00,VALID,917.479,VALID,0,VALID,100,VALID,-0.101885,VALID,19.1293,VALID,16,VALID,0,
2009-05-02, 03:32:00,VALID,917.486,VALID,0,VALID,100,VALID,-0.101885,VALID,19.1036,VALID,16,VALID,0,
2009-05-02, 03:33:00,VALID,917.49,VALID,0,VALID,100,VALID,-0.101885,VALID,19.1036,VALID,16,VALID,0,
2009-05-02, 03:34:00,VALID,917.495,VALID,0,VALID,100,VALID,-0.135847,VALID,19.0744,VALID,16,VALID,0,
2009-05-02, 03:35:00,VALID,917.51,VALID,0,VALID,100,VALID,-0.118866,VALID,19.0422,VALID,17,VALID,0.135789,
2009-05-02, 03:36:00,VALID,917.514,VALID,0,VALID,100,VALID,-0.169808,VALID,19.0521,VALID,23,VALID,0.412109,
2009-05-02, 03:37:00,VALID,917.505,VALID,0,VALID,100,VALID,-0.135847,VALID,19.0581,VALID,19,VALID,0.36849,
2009-05-02, 03:38:00,VALID,917.502,VALID,0,VALID,100,VALID,-0.118866,VALID,19.0811,VALID,13,VALID,0.217862,
2009-05-02, 03:39:00,VALID,917.497,VALID,0,VALID,100,VALID,-0.0339617,VALID,19.0764,VALID,21,VALID,0.657227,
2009-05-02, 03:40:00,VALID,917.496,VALID,0,VALID,100,VALID,0,VALID,19.0799,VALID,21,VALID,0.434832,
2009-05-02, 03:41:00,VALID,917.518,VALID,0,VALID,99.9591,VALID,-0.0169808,VALID,19.0732,VALID,21,VALID,0.446429,